This is the latest recevied weather packets stored in our database for station/object OE6PLD-13. If no packets are shown the sender has not sent any weather packets the latest 10 day(s).
| Time | Temp. | Humidity | Pressure | Rain* | Wind** | Luminosity | Snow |
|---|---|---|---|---|---|---|---|
| 1778237663 | 20.56° C | 57% | 1018.2 hPa | 0.76 mm | - | 712 W/m² | - |
| 1778237479 | 20° C | 58% | 1018.4 hPa | 0.76 mm | - | 689 W/m² | - |
| 1778237296 | 19.44° C | 62% | 1018.3 hPa | 0.76 mm | - | 673 W/m² | - |
| 1778237112 | 18.89° C | 61% | 1018.2 hPa | 0.76 mm | - | 674 W/m² | - |
| 1778236929 | 18.89° C | 63% | 1018 hPa | 0.76 mm | - | 612 W/m² | - |
| 1778236746 | 17.78° C | 65% | 1018.4 hPa | 0.76 mm | - | 456 W/m² | - |
| 1778236562 | 18.89° C | 62% | 1018.3 hPa | 0.76 mm | - | 187 W/m² | - |
| 1778236379 | 19.44° C | 63% | 1018.5 hPa | 0.76 mm | - | 194 W/m² | - |
| 1778236196 | 19.44° C | 60% | 1018.2 hPa | 0.76 mm | - | 392 W/m² | - |
| 1778236013 | 18.89° C | 64% | 1018.2 hPa | 0.76 mm | - | 191 W/m² | - |
| 1778235829 | 19.44° C | 62% | 1018.3 hPa | 0.76 mm | - | 151 W/m² | - |
| 1778235646 | 18.89° C | 61% | 1018.4 hPa | 0.76 mm | - | 729 W/m² | - |
| 1778235462 | 19.44° C | 60% | 1018.5 hPa | 0.76 mm | - | 212 W/m² | - |
| 1778235279 | 20° C | 58% | 1018.5 hPa | 0.76 mm | - | 172 W/m² | - |
| 1778235096 | 20° C | 59% | 1018.5 hPa | 0.76 mm | - | 128 W/m² | - |
| 1778234912 | 20.56° C | 57% | 1018.3 hPa | 0.76 mm | - | 733 W/m² | - |
| 1778234729 | 20° C | 58% | 1018.5 hPa | 0.76 mm | - | 683 W/m² | - |
| 1778234546 | 19.44° C | 58% | 1018.5 hPa | 0.76 mm | - | 608 W/m² | - |
| 1778234362 | 18.89° C | 57% | 1018.5 hPa | 0.76 mm | - | 648 W/m² | - |
| 1778234179 | 18.89° C | 58% | 1018.5 hPa | 0.76 mm | - | 629 W/m² | - |
| 1778233995 | 18.89° C | 57% | 1018.8 hPa | 0.76 mm | - | 634 W/m² | - |
| 1778233812 | 18.33° C | 58% | 1018.5 hPa | 0.76 mm | - | 636 W/m² | - |
| 1778233629 | 18.33° C | 58% | 1018.6 hPa | 0.76 mm | - | 636 W/m² | - |
| 1778233445 | 18.33° C | 59% | 1018.7 hPa | 0.76 mm | - | 645 W/m² | - |
| 1778233262 | 19.44° C | 60% | 1018.6 hPa | 0.76 mm | - | 626 W/m² | - |
* Rain latest hour (hover to see other rain measurements)
** Current wind speed in m/s (hover to see current wind gust speed)